Tracking 23940 objects as of 2-Dec-2021
HD Live streaming from Space Station
objects crossing your sky now

PEGASUS DEB

Track PEGASUS DEB now!
10-day predictions


NORAD ID: 24239
Int'l Code: 1994-029LN
Perigee: 578.1 km
Apogee: 890.3 km
Inclination: 81.5 °
Period: 99.3 minutes
Semi major axis: 7105 km
RCS: 0.0506 m2 (small)
Launch date: May 19, 1994
Source: United States (US)
Launch site: AIR FORCE WESTERN TEST RANGE (AFWTR)

Note: This is SATELLITE DEBRIS
aabbcc
Your satellite tracking list
Your tracking list is empty




NASA's NSSDC Master Catalog

Two Line Element Set (TLE):
1 24239U 94029LN  21335.65007219  .00000818  00000-0  15322-3 0  9991
2 24239  81.5251  63.5475 0219673 318.5228  39.9467 14.49567209333915
Source of the keplerian elements: AFSPC